Location: Freiburg+im+Breisgau
(48.0359°N, 7.8195°E)
Time: 13:54:49
(UTC+01:00)

Tiangong 2 - Visible Passes

Search period start: 22 November 2017 00:00
Search period end: 02 December 2017 00:00
Orbit: 386 x 392 km, 42.8° (Epoch: 21 November)

Date Brightness Start Highest point End Pass type
(mag) Time Alt. Az. Time Alt. Az. Time Alt. Az.
27 Nov 4.0 06:49:50 10° SSW 06:51:45 15° SSE 06:53:41 10° ESE visible
28 Nov 4.3 05:53:18 10° SSE 05:53:48 10° SSE 05:54:17 10° SE visible
29 Nov 3.5 06:29:25 10° SSW 06:31:53 21° SSE 06:34:22 10° ESE visible
30 Nov 3.7 05:33:28 15° SSE 05:33:51 15° SSE 05:35:51 10° ESE visible
30 Nov 2.8 07:07:17 10° WSW 07:10:08 30° S 07:13:00 10° ESE visible
01 Dec 2.9 06:10:32 18° SSW 06:12:01 26° SSE 06:14:46 10° ESE visible
